Back to catalog

LEMUR-2-JESS-R

AliveScienceSSO
NORAD 69926·PAYLOAD·🇺🇸 United States

Launched Jul 7, 2026 from Vandenberg Space Force Base

Loading…

Next Passes (next 24 hours)

TLE

FreshSource: Space-Track

Epoch: Sep 13, 2026, 15:57 UTC

1 69926U 26156BK  26256.66492751  .00003155  00000-0  31227-3 0  9995
2 69926  97.7503 156.0781 0007003 305.7509  54.3059 14.92561130 10191

Track LEMUR-2-JESS-R in real time with AllMySat

Download on the App Store